DW4379 Weather Reports


time (UTC)temp
C
wind
direction
speed
KPH
gust
KPH
rain 1hr
cm
rain 24hr
cm
rain mn
cm
humidity
%
barometer
mb
20260905191504 36 346 1.6 8.0 0.00 0.00 0.00 58 1010.8
20260905191004 36 333 1.6 8.0 0.00 0.00 0.00 58 1010.7
20260905190504 36 300 1.6 6.4 0.00 0.00 0.00 59 1010.9
20260905190004 36 286 0.0 6.4 0.00 0.00 0.00 57 1010.9
20260905185503 36 272 0.0 3.2 0.00 0.00 0.00 58 1010.9
20260905185218 36 273 1.6 3.2 0.00 0.00 0.00 58 1011.1
20260905184503 36 319 0.0 4.8 0.00 0.00 0.00 58 1011.1
20260905184003 36 321 0.0 4.8 0.00 0.00 0.00 59 1011.2
20260905183503 36 276 0.0 3.2 0.00 0.00 0.00 58 1011.3
20260905183003 36 275 0.0 3.2 0.00 0.00 0.00 58 1011.4
20260905182717 35 276 1.6 3.2 0.00 0.00 0.00 58 1011.4
20260905182003 35 311 1.6 4.8 0.00 0.00 0.00 58 1011.5
20260905181504 35 319 0.0 3.2 0.00 0.00 0.00 59 1011.7
20260905181004 35 98 0.0 3.2 0.00 0.00 0.00 61 1011.8
20260905180504 35 71 1.6 4.8 0.00 0.00 0.00 62 1011.7
20260905180004 34 44 3.2 8.0 0.00 0.00 0.00 62 1011.8
20260905175717 34 33 3.2 8.0 0.00 0.00 0.00 63 1011.9
20260905175004 35 339 0.0 4.8 0.00 0.00 0.00 62 1011.9
20260905174503 35 138 0.0 3.2 0.00 0.00 0.00 62 1011.9
20260905174003 34 181 0.0 3.2 0.00 0.00 0.00 63 1011.9
20260905173503 34 227 0.0 3.2 0.00 0.00 0.00 62 1012.0
20260905173004 34 235 0.0 3.2 0.00 0.00 0.00 62 1012.0
20260905172503 34 103 0.0 3.2 0.00 0.00 0.00 64 1012.0
20260905172218 33 19 0.0 3.2 0.00 0.00 0.00 65 1012.0
20260905171504 33 351 0.0 3.2 0.00 0.00 0.00 65 1012.0
20260905171004 33 218 0.0 3.2 0.00 0.00 0.00 65 1012.2
20260905170504 33 180 1.6 3.2 0.00 0.00 0.00 66 1012.2
20260905170004 33 131 0.0 3.2 0.00 0.00 0.00 66 1012.3
20260905165504 33 225 0.0 3.2 0.00 0.00 0.00 65 1012.3
20260905165003 33 128 1.6 8.0 0.00 0.00 0.00 66 1012.4
20260905164718 33 105 1.6 8.0 0.00 0.00 0.00 68 1012.4
20260905164003 32 118 1.6 6.4 0.00 0.00 0.00 69 1012.3
20260905163504 32 136 1.6 4.8 0.00 0.00 0.00 69 1012.5
20260905163003 32 127 1.6 4.8 0.00 0.00 0.00 69 1012.7
20260905162504 32 117 3.2 6.4 0.00 0.00 0.00 71 1012.6
20260905162217 32 113 3.2 6.4 0.00 0.00 0.00 71 1012.7
20260905161503 32 102 3.2 9.7 0.00 0.00 0.00 71 1012.7
20260905161003 32 107 3.2 9.7 0.00 0.00 0.00 71 1012.7
20260905160504 31 115 1.6 9.7 0.00 0.00 0.00 71 1012.7
20260905160217 31 112 3.2 9.7 0.00 0.00 0.00 72 1012.8
20260905155503 31 123 1.6 6.4 0.00 0.00 0.00 71 1012.6
20260905155003 31 131 1.6 6.4 0.00 0.00 0.00 72 1012.7
20260905154503 31 107 3.2 8.0 0.00 0.00 0.00 74 1012.7
20260905154217 31 102 3.2 8.0 0.00 0.00 0.00 74 1012.6
20260905153503 31 115 3.2 8.0 0.00 0.00 0.00 74 1012.7
20260905153003 31 131 1.6 6.4 0.00 0.00 0.00 74 1012.7
20260905152503 31 90 1.6 6.4 0.00 0.00 0.00 74 1012.9
20260905152004 30 81 1.6 6.4 0.00 0.00 0.00 75 1013.0
20260905151718 30 91 3.2 8.0 0.00 0.00 0.00 75 1013.0
20260905151003 30 97 3.2 8.0 0.00 0.00 0.00 75 1013.0
20260905150504 30 87 3.2 8.0 0.00 0.00 0.00 76 1013.1
20260905150004 30 92 1.6 8.0 0.00 0.00 0.00 78 1013.0
20260905145503 30 95 3.2 8.0 0.00 0.00 0.00 77 1013.0
20260905145004 30 99 3.2 9.7 0.00 0.00 0.00 77 1012.8
20260905144503 30 113 3.2 9.7 0.00 0.00 0.00 77 1012.8
20260905144003 30 116 4.8 12.9 0.00 0.00 0.00 78 1012.8
20260905143503 29 109 4.8 12.9 0.00 0.00 0.00 78 1012.8
20260905143003 29 109 4.8 11.3 0.00 0.00 0.00 79 1012.8
20260905142504 29 109 4.8 11.3 0.00 0.00 0.00 79 1012.9
20260905142004 29 108 4.8 14.5 0.00 0.00 0.00 79 1012.9
20260905141503 29 103 6.4 14.5 0.00 0.00 0.00 80 1013.0
20260905141003 29 87 4.8 14.5 0.00 0.00 0.00 80 1013.1
20260905140503 29 63 3.2 8.0 0.00 0.00 0.00 79 1013.0
20260905140004 28 58 0.0 4.8 0.00 0.00 0.00 81 1012.8
20260905135504 28 215 0.0 1.6 0.00 0.00 0.00 80 1012.7
20260905135218 28 223 0.0 1.6 0.00 0.00 0.00 79 1012.7
20260905134504 28 230 0.0 1.6 0.00 0.00 0.00 82 1012.6
20260905134004 27 0 0.0 0.0 0.00 0.00 0.00 82 1012.5
20260905133503 27 230 0.0 1.6 0.00 0.00 0.00 83 1012.5
20260905133004 27 230 0.0 1.6 0.00 0.00 0.00 84 1012.5
20260905132503 27 230 0.0 1.6 0.00 0.00 0.00 84 1012.5
20260905132218 27 0 0.0 0.0 0.00 0.00 0.00 84 1012.5
20260905131503 26 235 0.0 1.6 0.00 0.00 0.00 85 1012.5
20260905131003 26 235 0.0 1.6 0.00 0.00 0.00 85 1012.4
20260905130503 26 236 0.0 1.6 0.00 0.00 0.00 84 1012.4
20260905130004 26 0 0.0 0.0 0.00 0.00 0.00 86 1012.5
20260905125503 26 0 0.0 0.0 0.00 0.00 0.00 85 1012.6
20260905125004 26 139 0.0 1.6 0.00 0.00 0.00 85 1012.6
20260905124503 26 139 0.0 1.6 0.00 0.00 0.00 86 1012.7
20260905124004 26 0 0.0 0.0 0.00 0.00 0.00 88 1012.7
20260905123504 25 0 0.0 0.0 0.00 0.00 0.00 88 1012.6
20260905123004 25 0 0.0 0.0 0.00 0.00 0.00 89 1012.5
20260905122503 25 0 0.0 0.0 0.00 0.00 0.00 89 1012.4
20260905122003 25 0 0.0 0.0 0.00 0.00 0.00 90 1012.5
20260905121717 25 0 0.0 0.0 0.00 0.00 0.00 90 1012.5
20260905121218 25 0 0.0 0.0 0.00 0.00 0.00 90 1012.5
20260905120504 25 0 0.0 0.0 0.00 0.00 0.00 91 1012.5
20260905120004 25 0 0.0 0.0 0.00 0.00 0.00 91 1012.4
20260905115503 25 0 0.0 0.0 0.00 0.00 0.00 91 1012.5
20260905115004 24 0 0.0 0.0 0.00 0.00 0.00 91 1012.5
20260905114504 24 0 0.0 0.0 0.00 0.00 0.00 91 1012.4
20260905114218 24 0 0.0 0.0 0.00 0.00 0.00 91 1012.4
20260905113504 24 0 0.0 0.0 0.00 0.00 0.00 91 1012.4
20260905113218 24 0 0.0 0.0 0.00 0.00 0.00 91 1012.3
20260905112504 24 0 0.0 0.0 0.00 0.00 0.00 91 1012.4
20260905112003 24 0 0.0 0.0 0.00 0.00 0.00 91 1012.3
20260905111504 24 0 0.0 0.0 0.00 0.00 0.00 90 1012.2
20260905111003 25 0 0.0 0.0 0.00 0.00 0.00 90 1012.3
20260905110504 25 0 0.0 0.0 0.00 0.00 0.00 89 1012.2
20260905110004 25 0 0.0 0.0 0.00 0.00 0.00 89 1012.2
20260905105503 25 0 0.0 0.0 0.00 0.00 0.00 89 1012.1
20260905105003 25 0 0.0 0.0 0.00 0.00 0.00 90 1012.1
20260905104504 25 0 0.0 0.0 0.00 0.00 0.00 90 1012.0
20260905104003 25 0 0.0 0.0 0.00 0.00 0.00 90 1012.0
20260905103503 25 0 0.0 0.0 0.00 0.00 0.00 90 1012.0
20260905103003 25 0 0.0 0.0 0.00 0.00 0.00 89 1012.0
20260905102503 25 0 0.0 0.0 0.00 0.00 0.00 90 1012.1
20260905102003 25 0 0.0 0.0 0.00 0.00 0.00 90 1012.2
20260905101503 25 0 0.0 0.0 0.00 0.00 0.00 90 1012.1
20260905101003 25 0 0.0 0.0 0.00 0.00 0.00 90 1012.1
20260905100504 25 0 0.0 0.0 0.00 0.00 0.00 90 1012.1
20260905100003 25 0 0.0 0.0 0.00 0.00 0.00 91 1012.1
20260905095504 25 0 0.0 0.0 0.00 0.00 0.00 91 1012.0
20260905095217 25 0 0.0 0.0 0.00 0.00 0.00 91 1012.0
20260905094503 25 0 0.0 0.0 0.00 0.00 0.00 92 1012.0
20260905094004 25 0 0.0 0.0 0.00 0.00 0.00 92 1012.0
20260905093718 25 136 0.0 1.6 0.00 0.00 0.00 92 1012.0
20260905093004 25 153 0.0 1.6 0.00 0.00 0.00 92 1012.0
20260905092718 25 155 0.0 1.6 0.00 0.00 0.00 92 1012.0
20260905092003 25 169 0.0 1.6 0.00 0.00 0.00 92 1011.9
20260905091504 25 169 0.0 1.6 0.00 0.00 0.00 92 1011.9
20260905091003 25 17 0.0 1.6 0.00 0.00 0.00 92 1011.8
20260905090504 25 15 0.0 1.6 0.00 0.00 0.00 93 1011.9
20260905090004 25 142 0.0 1.6 0.00 0.00 0.00 93 1011.9
20260905085503 25 161 0.0 1.6 0.00 0.00 0.00 92 1011.9
20260905085003 25 0 0.0 0.0 0.00 0.00 0.00 92 1011.9
20260905084504 25 0 0.0 0.0 0.00 0.00 0.00 92 1011.8
20260905084218 25 0 0.0 0.0 0.00 0.00 0.00 92 1011.8
20260905083504 25 0 0.0 0.0 0.00 0.00 0.00 91 1011.7
20260905083003 25 0 0.0 0.0 0.00 0.00 0.00 91 1011.7
20260905082503 25 0 0.0 0.0 0.00 0.00 0.00 91 1011.7
20260905082003 25 0 0.0 0.0 0.00 0.00 0.00 91 1011.6
20260905081503 25 0 0.0 0.0 0.00 0.00 0.00 91 1011.6
20260905081003 25 0 0.0 0.0 0.00 0.00 0.00 91 1011.6
20260905080503 25 0 0.0 0.0 0.00 0.00 0.00 91 1011.7
20260905080004 25 0 0.0 0.0 0.00 0.00 0.00 91 1011.7
20260905075717 25 0 0.0 0.0 0.00 0.00 0.00 91 1011.5
20260905075003 25 0 0.0 0.0 0.00 0.00 0.00 91 1011.6
20260905074503 25 0 0.0 0.0 0.00 0.00 0.00 90 1011.7
20260905074004 25 0 0.0 0.0 0.00 0.00 0.00 90 1011.7
20260905073503 25 0 0.0 0.0 0.00 0.00 0.00 90 1011.7
20260905073003 25 0 0.0 0.0 0.00 0.00 0.00 91 1011.7
20260905072503 25 0 0.0 0.0 0.00 0.00 0.00 91 1011.8
20260905072003 25 0 0.0 0.0 0.00 0.00 0.00 90 1011.9
20260905071503 25 0 0.0 0.0 0.00 0.00 0.00 90 1011.8
20260905071004 26 0 0.0 0.0 0.00 0.00 0.00 90 1011.8
20260905070717 26 0 0.0 0.0 0.00 0.00 0.00 90 1011.8
20260905070004 26 0 0.0 0.0 0.00 0.00 0.00 90 1011.8
20260905065504 26 0 0.0 0.0 0.00 0.00 0.00 90 1011.7
20260905065003 26 0 0.0 0.0 0.00 0.00 0.00 90 1011.8
20260905064503 26 0 0.0 0.0 0.00 0.00 0.00 90 1011.9
20260905064004 26 0 0.0 0.0 0.00 0.00 0.00 90 1011.9
20260905063504 26 0 0.0 0.0 0.00 0.00 0.00 90 1011.9
20260905063004 26 0 0.0 0.0 0.00 0.00 0.00 90 1012.0
20260905062503 26 0 0.0 0.0 0.00 0.00 0.00 90 1012.0
20260905062003 26 0 0.0 0.0 0.00 0.00 0.00 90 1012.0
20260905061719 26 0 0.0 0.0 0.00 0.00 0.00 90 1012.0
20260905061004 26 0 0.0 0.0 0.00 0.00 0.00 90 1012.1
20260905060503 26 0 0.0 0.0 0.00 0.00 0.00 90 1012.1
20260905060004 26 0 0.0 0.0 0.00 0.00 0.00 90 1012.1
20260905055504 26 0 0.0 0.0 0.00 0.00 0.00 90 1012.1
20260905055004 26 0 0.0 0.0 0.00 0.00 0.00 90 1012.0
20260905054503 26 0 0.0 0.0 0.00 0.00 0.00 90 1012.0
20260905054004 26 0 0.0 0.0 0.00 0.00 0.00 90 1012.1
20260905053503 26 0 0.0 0.0 0.00 0.00 0.00 90 1012.1
20260905053217 26 0 0.0 0.0 0.00 0.00 0.00 90 1012.2
20260905052503 26 0 0.0 0.0 0.00 0.00 0.00 90 1012.3
20260905052003 26 0 0.0 0.0 0.00 0.00 0.00 90 1012.3
20260905051718 26 0 0.0 0.0 0.00 0.00 0.00 90 1012.3
20260905051003 26 0 0.0 0.0 0.00 0.00 0.00 90 1012.2
20260905050503 26 0 0.0 0.0 0.00 0.00 0.00 90 1012.2
20260905050004 26 0 0.0 0.0 0.00 0.00 0.00 90 1012.1
20260905045503 26 0 0.0 0.0 0.00 0.00 0.00 90 1012.3
20260905045003 27 0 0.0 0.0 0.00 0.00 0.00 90 1012.2
20260905044504 27 0 0.0 0.0 0.00 0.00 0.00 90 1012.3
20260905044003 27 0 0.0 0.0 0.00 0.00 0.00 91 1012.4
20260905043503 27 0 0.0 0.0 0.00 0.00 0.00 90 1012.4
20260905043004 27 0 0.0 0.0 0.00 0.00 0.00 90 1012.5
20260905042504 27 0 0.0 0.0 0.00 0.00 0.00 90 1012.4
20260905042003 27 0 0.0 0.0 0.00 0.00 0.00 90 1012.5
20260905041504 27 0 0.0 0.0 0.00 0.00 0.00 90 1012.5
20260905041003 27 0 0.0 0.0 0.00 0.00 0.00 90 1012.5
20260905040504 27 0 0.0 0.0 0.00 0.00 0.00 89 1012.5
20260905040009 27 96 0.0 1.6 0.00 0.00 0.00 89 1012.5
20260905035503 27 97 0.0 1.6 0.00 0.00 0.00 89 1012.5
20260905035003 27 97 0.0 1.6 0.00 0.00 0.00 89 1012.5
20260905034503 27 97 0.0 1.6 0.00 0.00 0.00 89 1012.6
20260905034003 27 0 0.0 0.0 0.00 0.00 0.00 89 1012.7
20260905033503 27 0 0.0 0.0 0.00 0.00 0.00 89 1012.7
20260905033003 27 0 0.0 0.0 0.00 0.00 0.00 88 1012.6
20260905032503 28 0 0.0 0.0 0.00 0.00 0.00 87 1012.6
20260905032218 28 0 0.0 0.0 0.00 0.00 0.00 87 1012.6
20260905031503 28 0 0.0 0.0 0.00 0.00 0.00 87 1012.6
20260905031003 28 0 0.0 0.0 0.00 0.00 0.00 88 1012.7
20260905030717 28 0 0.0 0.0 0.00 0.00 0.00 88 1012.6
20260905030003 28 0 0.0 0.0 0.00 0.00 0.00 88 1012.5
20260905025503 28 0 0.0 0.0 0.00 0.00 0.00 88 1012.5
20260905025218 28 0 0.0 0.0 0.00 0.00 0.00 88 1012.4
20260905024503 28 0 0.0 0.0 0.00 0.00 0.00 86 1012.4
20260905024218 28 0 0.0 0.0 0.00 0.00 0.00 86 1012.4
20260905023503 28 0 0.0 0.0 0.00 0.00 0.00 84 1012.4
20260905023218 28 0 0.0 0.0 0.00 0.00 0.00 84 1012.4
20260905022504 28 0 0.0 0.0 0.00 0.00 0.00 83 1012.2
20260905022003 28 0 0.0 0.0 0.00 0.00 0.00 84 1012.2
20260905021504 29 0 0.0 0.0 0.00 0.00 0.00 84 1012.3
20260905021218 29 0 0.0 0.0 0.00 0.00 0.00 84 1012.3
20260905020503 29 0 0.0 0.0 0.00 0.00 0.00 83 1012.3
20260905020003 30 0 0.0 0.0 0.00 0.00 0.00 82 1012.3
20260905015717 30 0 0.0 0.0 0.00 0.00 0.00 81 1012.4
20260905015003 30 0 0.0 0.0 0.00 0.00 0.00 81 1012.2
20260905014504 30 0 0.0 0.0 0.00 0.00 0.00 81 1012.0
20260905014003 30 0 0.0 0.0 0.00 0.00 0.00 82 1012.0
20260905013503 30 0 0.0 0.0 0.00 0.00 0.00 82 1012.1
20260905013218 30 0 0.0 0.0 0.00 0.00 0.00 81 1012.0
20260905012503 30 0 0.0 0.0 0.00 0.00 0.00 81 1012.0
20260905012003 30 0 0.0 0.0 0.00 0.00 0.00 80 1011.9
20260905011503 30 0 0.0 0.0 0.00 0.00 0.00 79 1011.9
20260905011004 31 0 0.0 0.0 0.00 0.00 0.00 78 1011.9
20260905010718 31 0 0.0 0.0 0.00 0.00 0.00 77 1011.9
20260905010004 31 0 0.0 0.0 0.00 0.00 0.00 76 1011.7
20260905005504 32 0 0.0 0.0 0.00 0.00 0.00 74 1011.7
20260905005004 32 0 0.0 0.0 0.00 0.00 0.00 73 1011.7
20260905004503 32 0 0.0 0.0 0.00 0.00 0.00 73 1011.6
20260905004008 32 0 0.0 0.0 0.00 0.00 0.00 72 1011.6
20260905003504 32 0 0.0 0.0 0.00 0.00 0.00 71 1011.5
20260905003004 32 0 0.0 0.0 0.00 0.00 0.00 71 1011.5
20260905002503 33 0 0.0 0.0 0.00 0.00 0.00 70 1011.6
20260905002003 33 0 0.0 0.0 0.00 0.00 0.00 70 1011.5
20260905001503 33 0 0.0 0.0 0.00 0.00 0.00 67 1011.6
20260905001217 33 0 0.0 0.0 0.00 0.00 0.00 67 1011.5
20260905000503 34 0 0.0 0.0 0.00 0.00 0.00 62 1011.5
20260905000003 34 0 0.0 0.0 0.00 0.00 0.00 62 1011.5
20260904235503 34 0 0.0 0.0 0.00 0.00 0.00 62 1011.5
20260904235217 34 0 0.0 0.0 0.00 0.00 0.00 62 1011.5
20260904234504 35 0 0.0 0.0 0.00 0.00 0.00 60 1011.4
20260904234004 35 0 0.0 0.0 0.00 0.00 0.00 59 1011.4
20260904233503 35 0 0.0 0.0 0.00 0.00 0.00 59 1011.3
20260904233003 35 0 0.0 0.0 0.00 0.00 0.00 59 1011.4
20260904232503 35 0 0.0 0.0 0.00 0.00 0.00 58 1011.5
20260904232217 35 0 0.0 0.0 0.00 0.00 0.00 57 1011.5
20260904231503 36 0 0.0 0.0 0.00 0.00 0.00 56 1011.4
20260904231004 36 0 0.0 0.0 0.00 0.00 0.00 55 1011.4
20260904230504 36 226 0.0 1.6 0.00 0.00 0.00 54 1011.4
20260904230217 36 226 0.0 1.6 0.00 0.00 0.00 54 1011.4
20260904225503 36 225 0.0 1.6 0.00 0.00 0.00 55 1011.4
20260904225004 36 230 0.0 1.6 0.00 0.00 0.00 55 1011.5
20260904224503 36 235 0.0 1.6 0.00 0.00 0.00 55 1011.5
20260904224004 36 242 0.0 1.6 0.00 0.00 0.00 54 1011.5
20260904223503 36 246 0.0 1.6 0.00 0.00 0.00 54 1011.6
20260904223004 36 239 0.0 1.6 0.00 0.00 0.00 54 1011.5
20260904222503 36 231 0.0 3.2 0.00 0.00 0.00 53 1011.3
20260904222003 36 228 0.0 3.2 0.00 0.00 0.00 54 1011.4
20260904221717 36 230 0.0 3.2 0.00 0.00 0.00 54 1011.5
20260904221003 36 231 0.0 3.2 0.00 0.00 0.00 52 1011.6
20260904220503 36 228 0.0 1.6 0.00 0.00 0.00 54 1011.7
20260904220004 36 201 0.0 1.6 0.00 0.00 0.00 53 1011.8
20260904215504 36 162 0.0 3.2 0.00 0.00 0.00 53 1011.7
20260904215218 36 170 0.0 3.2 0.00 0.00 0.00 52 1011.7
20260904214717 36 155 0.0 3.2 0.00 0.00 0.00 52 1011.7
20260904214003 37 125 0.0 3.2 0.00 0.00 0.00 53 1011.8
20260904213503 37 145 0.0 3.2 0.00 0.00 0.00 51 1011.8
20260904213004 37 214 0.0 3.2 0.00 0.00 0.00 52 1011.9
20260904212503 37 209 0.0 3.2 0.00 0.00 0.00 53 1011.9
20260904212003 37 210 0.0 1.6 0.00 0.00 0.00 51 1011.8
20260904211503 37 214 0.0 1.6 0.00 0.00 0.00 51 1011.9
20260904211003 37 214 0.0 1.6 0.00 0.00 0.00 51 1011.9
20260904210503 37 209 0.0 1.6 0.00 0.00 0.00 49 1012.0
20260904210004 37 197 0.0 3.2 0.00 0.00 0.00 50 1012.1
20260904205503 37 199 0.0 3.2 0.00 0.00 0.00 49 1012.2
20260904205003 37 211 0.0 1.6 0.00 0.00 0.00 50 1012.2
20260904204503 37 146 0.0 3.2 0.00 0.00 0.00 50 1012.2
20260904204004 37 145 0.0 3.2 0.00 0.00 0.00 49 1012.3
20260904203503 37 157 0.0 1.6 0.00 0.00 0.00 53 1012.4
20260904203004 37 187 0.0 1.6 0.00 0.00 0.00 52 1012.4
20260904202503 37 191 0.0 3.2 0.00 0.00 0.00 52 1012.6
20260904202218 37 186 0.0 3.2 0.00 0.00 0.00 53 1012.6
20260904201503 37 125 1.6 6.4 0.00 0.00 0.00 54 1012.7
20260904201003 37 107 1.6 4.8 0.00 0.00 0.00 54 1012.6
20260904200504 37 105 0.0 4.8 0.00 0.00 0.00 52 1012.7
20260904200004 37 0 0.0 0.0 0.00 0.00 0.00 53 1012.8
20260904195503 36 0 0.0 0.0 0.00 0.00 0.00 52 1012.8
20260904195218 36 28 0.0 1.6 0.00 0.00 0.00 54 1012.9
20260904194719 36 97 0.0 4.8 0.00 0.00 0.00 53 1013.0
20260904194218 36 107 0.0 4.8 0.00 0.00 0.00 53 1013.1
20260904193504 36 0 0.0 0.0 0.00 0.00 0.00 54 1013.3
20260904193004 36 263 0.0 1.6 0.00 0.00 0.00 54 1013.5
20260904192503 37 256 0.0 1.6 0.00 0.00 0.00 53 1013.5
20260904192003 37 247 0.0 1.6 0.00 0.00 0.00 52 1013.6